Back to catalog

STARLINK-34545

AliveCommunicationsVLEO
NORAD 65105·PAYLOAD·🇺🇸 United States

Launched Aug 4, 2025 from Cape Canaveral Space Force Station

Loading…

Next Passes (next 24 hours)

TLE

FreshSource: CelesTrak SupGP

Epoch: Sep 14, 2026, 20:40 UTC

1 65105C 25167AD  26257.86159722  .00045750  00000+0  13514-2 0  2573
2 65105  53.1576 220.2393 0001414  96.0885 193.4913 15.34374172    11

Track STARLINK-34545 in real time with AllMySat

Download on the App Store